Dewpoint
58 58 58 58 58 58 58 58 58 58 58 59 59 59 60 60 60 60 60 60 60 60 60 60 61 61 60 60 60 60 60 54 48 47 49 44 47 63 65 65 66 65 66 44 34 38 37 27 27 26 26 26 29 37 40 39 39 43 43 42 40 47 44 41 43 39 44 44 45 48 48 50 53 52 55 56 52 53 53 56 58 59 59 59 59 60 60 59
58 58 58 58 58 57 58 57 58 58 58 58 58 59 59 60 60 60 60 60 60 60 60 60 60 60 60 60 60 60 57 53 49 47 46 54 62 65 65 66 66 66 63 36 35 36 32 30 30 28 27 33 41 41 40 44 42 42 42 42 41 45 44 47 45 42 44 44 47 47 49 50 51 51 52 53 51 50 53 56 57 58 59 59 60 60 60 60
58 58 58 58 57 58 58 58 57 57 57 57 58 58 59 59 59 60 60 60 60 60 60 60 60 60 60 60 60 59 56 44 44 43 39 62 64 64 64 64 64 65 42 33 36 34 32 33 33 31 39 34 33 41 39 45 43 44 40 41 42 44 45 47 46 43 47 46 48 48 48 55 46 47 52 52 50 52 49 53 54 56 57 59 58 60 60 61
58 58 58 57 57 58 58 57 57 57 57 57 58 58 58 58 59 59 60 60 60 60 60 60 60 60 60 60 60 58 56 52 34 29 32 64 64 64 64 65 65 62 44 37 36 36 37 39 37 38 35 38 40 39 40 43 47 44 43 40 42 46 46 44 47 44 45 47 50 47 51 44 44 47 51 50 51 52 52 53 52 55 56 58 59 59 59 58
58 58 58 58 57 57 57 57 57 57 58 57 58 58 58 58 59 59 59 60 60 60 60 60 60 60 59 60 60 57 52 34 25 27 45 62 62 65 64 65 64 48 40 39 38 34 41 38 39 37 38 37 38 43 40 43 44 44 42 40 41 45 46 48 51 47 47 48 49 54 44 44 46 47 49 50 50 48 53 53 54 55 57 58 58 57 58 58
58 57 57 57 57 57 57 57 57 57 57 56 58 58 58 58 58 58 59 60 60 60 60 60 60 60 60 59 58 54 44 17 23 31 60 63 62 66 65 64 65 56 41 39 38 38 37 39 39 41 38 40 43 40 39 40 44 41 40 39 39 41 43 46 46 49 53 54 52 43 43 45 46 46 51 52 50 51 54 52 52 53 55 56 56 56 57 58
57 57 57 57 57 57 56 56 57 58 56 57 58 58 58 58 58 58 59 60 60 60 60 60 60 60 60 59 53 49 47 32 27 40 62 64 63 64 64 65 66 47 41 40 38 37 39 39 43 43 42 42 39 42 40 42 42 40 36 37 37 43 38 51 49 49 53 40 37 44 46 44 44 45 47 49 52 52 52 54 53 54 54 54 55 56 57 58
57 56 56 56 56 56 56 57 57 57 56 57 57 57 58 58 58 58 59 60 60 60 61 60 60 60 61 55 46 35 39 34 31 43 63 64 61 57 63 46 42 43 42 38 35 38 40 38 37 41 42 41 40 39 39 42 42 40 38 37 35 37 44 45 44 37 38 39 37 37 37 40 44 44 45 47 51 52 52 54 54 54 54 54 55 55 57 57
56 56 55 55 55 55 56 56 56 56 57 57 57 57 57 58 58 58 58 60 60 60 60 60 61 60 59 54 49 40 27 27 31 40 55 47 43 36 41 36 39 40 40 38 35 36 39 39 39 41 40 42 39 40 41 44 43 46 34 36 36 36 35 35 36 36 36 35 36 36 35 37 39 41 42 45 46 47 49 50 50 51 52 53 54 54 54 55
55 55 55 55 55 55 55 55 56 57 57 56 56 57 57 57 57 57 58 60 61 60 60 61 61 60 56 41 36 35 28 30 31 37 39 35 37 37 37 37 39 40 38 36 36 36 36 37 39 40 42 45 40 38 47 43 37 36 37 35 34 34 35 35 35 34 32 33 34 34 35 37 38 38 39 43 44 45 44 43 45 49 51 49 50 53 51 53
55 55 55 55 55 55 55 55 56 57 56 56 55 56 57 58 57 58 59 60 60 60 60 61 62 58 52 44 40 36 29 26 28 28 33 33 33 36 37 37 41 39 38 36 37 38 37 38 40 42 44 42 49 39 42 42 43 34 32 32 30 28 29 32 33 33 33 32 34 34 35 36 37 38 38 42 45 48 43 46 44 46 46 45 46 49 51 49
55 55 55 55 55 54 55 56 57 56 56 56 55 54 57 58 58 58 60 60 61 61 61 60 60 55 50 45 42 35 29 26 29 28 31 34 34 35 36 38 40 40 36 38 40 41 38 44 46 44 43 42 43 43 40 37 31 31 31 30 31 32 31 32 33 34 33 32 34 34 34 33 36 37 41 43 47 46 47 46 47 46 45 44 44 45 46 47
54 54 54 54 54 54 55 56 56 56 56 54 54 54 56 58 59 59 60 60 61 61 61 60 59 53 49 49 40 31 31 33 33 32 34 34 34 38 38 37 36 40 37 35 34 40 42 41 47 43 46 45 39 42 36 35 35 34 35 39 30 31 30 32 32 33 34 35 33 33 28 31 36 38 39 42 43 43 44 45 43 43 44 44 44 44 45 46
54 54 54 54 54 54 55 56 56 56 54 54 54 54 55 57 59 60 60 60 61 61 61 60 58 50 50 45 30 33 35 35 34 34 34 35 36 37 37 37 35 33 33 35 36 37 39 40 40 45 44 48 42 38 37 34 36 42 37 36 31 30 32 32 30 31 32 35 36 38 31 31 36 38 40 41 41 42 42 42 43 44 44 43 43 46 45 46
54 54 54 54 53 54 54 55 55 54 54 54 54 54 55 56 58 60 60 61 60 61 61 60 55 52 51 34 31 38 70 38 33 33 35 35 35 33 35 34 34 33 33 33 36 36 37 41 38 39 39 43 39 39 36 38 33 32 33 30 30 28 29 29 30 31 32 34 34 33 31 32 35 38 39 39 40 40 40 40 42 42 43 43 44 45 44 46
54 54 54 53 53 53 54 54 53 53 53 54 54 53 54 56 57 59 60 60 59 60 59 54 53 49 35 38 33 52 36 32 31 34 35 35 33 32 26 30 31 31 32 31 32 35 37 38 36 45 44 43 35 33 34 32 30 31 41 37 28 28 27 28 31 33 33 33 31 34 29 33 33 36 37 38 38 38 36 38 37 40 40 42 44 44 42 46
54 53 53 53 53 53 53 53 53 53 53 53 53 54 55 56 57 58 58 58 56 56 55 50 46 47 42 31 33 31 31 32 33 30 34 32 33 31 29 28 28 29 30 29 29 31 33 47 41 44 44 37 35 34 32 30 29 26 29 34 31 26 29 28 31 33 32 32 31 30 28 30 33 35 36 36 37 36 35 34 36 36 38 41 40 41 42 44
53 53 53 53 52 52 53 53 53 53 52 52 52 53 54 57 56 55 55 54 49 50 49 47 45 40 34 28 27 29 30 30 30 29 31 30 28 28 28 28 28 25 25 25 27 26 30 44 43 44 37 35 35 34 34 29 28 28 29 32 30 29 27 28 31 39 36 32 31 28 30 32 33 34 36 35 36 35 34 35 36 37 36 37 40 39 41 42
53 53 52 52 52 52 52 53 54 52 52 52 53 53 55 54 54 52 48 46 44 46 43 34 39 32 24 23 22 22 20 27 27 25 27 27 29 27 28 28 24 24 23 22 24 23 27 33 33 39 31 35 34 35 27 26 27 26 26 25 30 25 31 29 38 36 39 35 29 30 30 32 33 34 34 36 35 35 33 36 36 34 37 39 42 40 39 42
53 52 52 52 52 52 51 52 52 52 52 49 43 53 56 55 54 47 48 45 41 40 28 33 31 33 19 21 18 21 20 20 20 24 25 26 25 26 26 26 25 24 22 26 25 22 24 25 29 24 21 22 30 27 29 30 32 30 25 28 21 21 23 27 34 34 35 33 27 28 30 30 32 33 34 34 36 32 33 36 36 36 39 37 38 40 38 45
53 52 52 52 52 51 51 51 51 51 51 47 47 41 36 32 29 29 29 30 32 29 29 26 24 21 21 20 20 17 18 22 22 24 24 25 25 24 24 24 23 21 22 18 18 22 23 27 26 25 14 27 30 30 37 28 25 23 21 25 16 19 21 25 29 32 30 32 27 26 26 28 30 33 34 34 36 35 34 35 35 34 41 39 40 40 40 47
52 52 52 52 52 51 50 50 50 50 51 49 43 32 31 31 31 29 31 27 27 25 23 21 20 19 21 22 18 19 19 19 19 21 22 23 22 22 22 18 18 18 13 16 24 29 31 29 24 12 14 15 16 17 24 26 23 23 23 23 23 18 19 24 27 28 30 29 27 24 25 27 30 31 33 34 34 35 36 35 35 34 35 36 40 41 44 47
52 52 52 52 51 51 50 50 48 49 51 48 45 38 33 30 31 31 32 28 26 24 22 22 20 17 17 20 19 18 17 17 19 19 21 20 22 22 21 20 20 15 16 15 26 27 27 17 11 14 16 16 16 18 22 24 19 24 20 23 19 19 37 23 25 26 24 26 21 22 22 24 28 33 34 34 26 30 31 33 35 34 40 38 39 42 44 45
51 52 52 51 52 50 50 48 49 54 48 26 23 20 28 32 31 32 34 31 25 23 22 20 19 18 17 18 18 16 17 17 14 17 22 19 19 19 17 16 16 15 14 14 14 15 17 9 11 12 13 15 16 15 31 28 25 18 19 21 19 16 19 27 24 29 32 28 27 24 26 30 30 28 28 32 30 28 30 31 33 35 37 41 41 41 48 48
51 51 51 51 51 50 48 48 41 32 30 31 27 21 28 32 37 35 37 32 23 19 23 22 19 18 19 22 18 15 15 14 13 18 19 16 19 17 16 16 16 15 12 9 9 13 11 9 9 9 9 11 12 14 14 20 18 16 12 16 16 18 22 20 24 26 30 29 26 29 26 30 30 30 27 29 31 32 32 33 32 34 34 33 36 42 41 43
51 51 51 51 51 49 47 48 34 33 32 22 24 24 30 29 34 39 39 33 24 20 21 18 20 17 18 18 18 15 15 14 12 14 17 15 22 17 18 13 12 9 8 8 12 14 9 9 9 9 10 11 11 10 12 14 20 18 8 15 15 17 20 21 23 27 27 28 30 27 38 22 28 26 29 32 31 29 29 36 36 36 36 35 39 43 43 44
51 50 50 50 50 49 38 30 35 38 28 17 21 32 29 28 47 40 37 28 19 19 21 15 12 14 17 16 15 14 11 8 13 15 14 18 16 17 15 14 13 12 8 13 20 15 7 7 5 8 10 10 12 13 13 13 14 17 12 13 15 17 22 24 29 30 27 27 27 25 34 36 22 27 29 31 31 32 34 34 36 33 35 35 39 39 43 46
51 50 50 50 50 49 45 44 43 35 31 29 29 28 28 37 41 44 34 26 25 20 19 16 13 18 16 13 13 12 14 12 11 13 14 15 16 16 15 13 12 12 10 9 16 14 10 6 6 8 8 10 10 12 12 11 13 16 10 10 14 16 17 30 29 30 30 25 30 33 29 30 28 29 31 32 29 31 30 30 32 33 32 29 35 37 39 43
50 50 50 49 49 48 54 50 44 38 33 26 28 29 31 46 38 37 31 26 27 19 20 22 16 16 14 12 12 12 9 12 12 11 14 16 15 14 13 16 12 10 9 8 8 3 4 8 6 8 9 11 11 12 14 12 12 11 12 10 14 14 16 21 27 37 39 27 31 31 28 31 39 40 30 30 27 26 27 27 29 32 33 32 34 36 39 40
49 49 49 49 48 50 56 53 54 48 38 30 35 37 39 41 39 32 28 27 26 20 18 15 15 12 14 10 10 11 11 9 11 17 17 15 14 13 12 13 9 10 8 8 6 3 0 13 17 8 9 10 10 12 11 13 12 13 12 12 13 15 18 20 36 32 34 26 31 29 28 36 32 31 36 31 30 29 29 29 29 30 31 29 36 32 32 37
49 49 49 49 45 35 39 36 25 35 39 44 42 38 40 37 31 25 24 25 23 27 14 14 11 11 11 11 10 9 8 8 10 13 14 12 13 13 13 12 8 8 10 13 12 5 5 5 4 6 8 9 8 9 11 12 12 11 10 14 15 27 23 35 29 27 25 23 28 26 28 30 30 29 32 27 29 29 32 31 31 32 29 28 37 32 33 37
49 48 48 49 45 43 41 28 28 33 44 47 44 37 31 27 29 26 27 26 19 22 14 11 10 10 10 9 8 9 6 7 9 10 9 10 13 14 16 13 17 19 21 20 21 8 4 5 7 7 16 4 10 8 8 13 12 9 12 19 20 21 26 25 29 25 21 19 30 28 28 38 35 33 25 24 23 27 31 27 28 28 25 34 26 29 32 26
48 48 49 47 45 49 46 44 42 48 50 47 42 32 30 27 26 26 26 25 24 22 17 14 8 9 9 8 7 6 7 5 5 8 8 9 9 11 13 11 11 21 21 24 18 16 10 6 8 6 8 11 11 8 13 13 14 9 15 22 22 21 24 20 16 19 26 12 15 23 23 26 29 30 26 25 24 21 25 31 29 28 36 35 32 32 30 37
48 48 50 47 45 42 39 51 47 45 49 51 41 27 27 25 27 35 24 26 26 23 21 16 15 10 12 12 9 8 7 8 7 6 6 11 9 20 15 12 10 14 18 29 24 14 21 10 10 6 9 5 10 10 10 12 13 12 10 9 27 28 22 21 21 21 19 18 11 9 23 24 23 25 25 25 24 26 28 29 33 33 31 37 30 28 30 28
48 50 56 59 58 55 52 49 52 53 52 40 31 26 26 27 28 27 24 29 26 27 22 21 21 15 14 14 13 12 11 13 6 7 6 9 16 13 19 14 10 12 18 25 27 26 17 18 12 12 13 11 11 7 9 9 17 19 7 8 25 27 25 18 22 19 19 18 19 13 24 28 27 25 23 25 24 26 29 29 34 33 31 34 31 28 29 30
49 47 44 42 36 40 45 50 52 53 50 35 27 23 23 26 26 24 34 28 25 26 29 24 18 17 19 16 21 22 0 9 6 7 4 5 11 14 12 16 15 7 11 26 28 21 17 24 14 14 15 12 10 5 8 10 23 15 17 26 16 11 10 23 23 18 23 17 16 17 26 25 23 22 22 24 25 25 27 30 31 32 30 36 32 31 31 31
40 46 42 36 36 37 48 50 47 51 45 32 26 23 25 22 22 24 27 25 27 26 33 36 20 17 22 17 20 15 11 9 10 7 14 6 12 10 15 16 13 9 11 17 27 16 19 20 17 15 14 12 12 3 12 12 13 17 20 20 14 8 11 26 16 15 13 13 16 16 11 23 18 23 23 23 27 26 27 30 31 33 34 32 33 33 33 33
48 44 45 44 38 35 48 48 49 50 40 29 27 36 23 21 22 21 27 25 26 28 40 38 33 17 22 20 19 13 7 12 17 10 12 9 17 23 12 15 12 12 15 14 16 18 18 15 18 10 15 16 10 12 12 7 9 9 11 7 11 21 24 31 24 14 16 15 11 14 10 17 22 27 24 25 28 28 27 29 30 33 35 35 35 38 42 43
50 48 46 42 41 38 45 49 51 45 36 27 26 27 22 21 22 21 24 26 27 29 24 24 35 23 17 21 20 17 12 13 12 10 10 16 11 16 13 14 13 12 13 13 16 26 20 20 20 14 15 9 8 16 21 19 22 24 18 7 9 24 35 37 27 21 21 12 18 6 13 16 21 20 20 24 31 27 28 27 30 31 32 34 36 39 40 47
50 42 35 49 45 50 52 52 46 39 32 24 23 23 21 20 21 22 21 21 23 24 32 26 20 30 24 22 20 20 21 8 11 14 7 18 11 19 15 15 23 15 12 14 13 12 20 42 19 22 12 11 15 20 21 24 22 30 28 30 23 32 20 13 25 14 13 12 10 5 10 21 25 16 24 26 27 27 28 30 33 31 34 35 38 46 46 48
42 42 39 51 48 51 52 45 38 30 29 30 23 20 17 18 20 20 21 20 21 23 23 25 29 28 26 25 23 22 25 15 12 18 10 13 13 19 13 16 20 16 12 13 10 19 23 20 19 20 22 27 26 20 15 13 21 21 21 25 26 29 21 16 19 21 17 14 15 8 11 25 23 18 21 24 25 23 22 30 35 31 35 42 40 48 49 44
46 38 38 52 54 52 45 31 31 30 26 22 21 19 20 32 18 18 19 20 20 22 21 22 30 28 30 34 32 34 34 20 13 17 15 21 20 11 15 15 12 15 11 24 25 20 37 32 25 20 17 20 25 21 19 14 14 16 22 21 17 26 23 23 23 26 21 34 10 19 13 28 31 28 26 26 24 25 27 27 31 31 38 43 41 43 50 52
45 42 41 44 54 49 43 35 32 30 24 20 18 17 16 17 18 18 18 18 18 21 23 20 22 23 25 27 32 35 38 36 23 19 19 15 15 16 18 18 17 15 13 29 23 27 33 24 25 16 23 23 23 19 19 11 11 21 25 23 27 30 32 29 28 29 21 15 14 16 19 28 33 36 35 34 29 30 32 30 31 34 38 42 42 45 47 51
40 42 41 39 53 45 41 32 28 24 26 21 21 18 15 14 19 19 18 18 17 22 22 22 20 19 25 23 31 37 40 34 26 21 25 18 19 18 18 15 14 17 14 31 32 37 25 34 23 18 18 29 25 27 27 28 28 22 27 33 33 31 35 36 29 30 25 23 21 13 16 26 37 39 28 29 29 28 27 28 33 35 44 44 43 45 47 53
46 47 41 42 48 49 40 38 33 29 27 24 20 17 16 15 17 22 21 19 19 21 23 22 21 21 18 23 28 29 33 34 33 24 26 22 23 20 18 18 17 18 19 29 52 24 27 31 28 22 21 18 20 19 25 27 28 30 36 33 31 29 35 34 23 27 24 29 23 18 18 28 34 36 31 30 29 31 35 34 34 33 46 43 48 52 50 51
44 39 38 32 40 42 42 42 37 32 31 30 25 20 17 22 23 21 20 18 16 19 21 21 20 22 23 23 28 31 28 27 33 31 24 26 22 21 20 19 16 16 45 53 40 26 35 34 32 28 26 24 25 28 31 31 31 28 36 34 32 33 33 35 31 25 23 31 28 30 29 27 28 31 31 32 34 34 37 41 37 34 43 50 50 51 50 51
48 42 38 30 37 33 37 35 34 36 36 40 31 27 29 24 24 20 18 22 18 19 19 21 20 28 29 29 35 33 25 26 25 25 27 24 23 30 22 20 18 38 54 36 36 31 35 27 28 31 30 27 28 26 30 33 33 33 33 35 35 34 36 34 25 25 34 29 17 34 37 32 29 29 30 35 36 35 36 38 39 39 45 42 46 50 49 45
37 43 44 50 45 36 31 33 31 31 33 38 38 32 23 21 24 30 18 16 16 22 20 22 20 20 26 28 34 32 33 28 28 35 22 23 24 31 23 23 21 49 41 25 23 31 32 26 26 31 30 27 27 27 30 32 31 32 30 33 35 39 37 36 35 34 36 28 25 33 35 34 30 29 35 35 38 40 36 40 45 46 42 42 46 42 40 42
40 43 43 46 42 44 45 46 44 43 40 33 35 37 34 30 27 23 29 22 14 19 17 25 22 19 21 26 34 35 36 32 32 31 30 32 28 42 38 25 25 28 26 28 28 39 36 26 25 22 30 29 26 23 22 19 26 30 31 31 35 35 37 38 38 37 36 35 36 37 36 36 33 32 30 40 46 41 40 40 48 39 42 39 40 43 39 40
36 38 41 44 45 44 46 47 46 43 40 41 34 36 34 34 35 30 25 29 33 26 15 20 19 21 23 22 28 33 38 39 43 36 37 37 44 33 36 37 35 29 26 30 27 44 33 22 29 24 27 27 25 22 20 22 25 27 31 33 34 36 36 37 37 38 37 37 37 34 33 32 33 45 41 43 52 42 45 38 40 44 37 39 40 39 41 38
41 44 48 44 43 44 44 43 42 44 41 41 40 36 36 34 36 33 36 37 32 34 27 24 23 24 23 22 25 32 47 43 43 41 35 41 37 32 35 39 30 32 28 32 36 42 38 31 28 30 25 25 23 24 25 24 26 29 32 35 36 38 36 37 35 37 36 36 37 37 34 32 37 43 43 44 40 37 39 43 48 47 43 42 41 40 41 44
44 46 50 47 42 42 40 39 41 42 38 40 40 45 39 35 33 36 40 38 38 36 34 31 40 43 41 40 38 47 47 45 44 43 41 39 40 36 29 29 28 36 41 33 43 33 38 32 26 27 22 23 21 26 29 28 29 28 31 31 36 38 38 39 38 38 38 39 36 29 28 38 39 42 40 40 40 39 39 43 42 41 45 42 41 44 43 44